Regional Weather Roundup
Issued by NWS

Home | Current Version | Previous Version | Text Only | Print | Product List | Glossary Off
Versions: 1 2 3 4 5 6 7 8 9 10 11 12 13 14 15 16 17 18 19 20 21 22 23 24 25 26 27 28 29 30 31 32 33 34 35 36 37 38 39 40 41 42 43 44 45 46 47 48 49 50

000
ASUS45 KABQ 010901
RWRNM
NEW MEXICO REGIONAL WEATHER ROUNDUP
NATIONAL WEATHER SERVICE ALBUQUERQUE NM
300 AM MDT WED JUL 01 2015

NOTE: "FAIR" MEANS FEW OR NO CLOUDS BELOW 12,000 FEET AGL WITH NO
       SIGNIFICANT WEATHER OR OBSTRUCTIONS TO VISION.

      THIS PRODUCT IS RELEASED AS TWO VERSIONS.  ONE VERSION NEAR
      THE TOP OF THE HOUR CONTAINING PRELIMINARY DATA FROM ALBUQUERQUE
      AND OTHER STATIONS.  A FINAL VERSION WITH ADDITIONAL DATA IS
      ISSUED ABOUT 10 MINUTES AFTER THE HOUR.

NMZ501-503-504-510>518-011000-
NORTHWEST PLATEAU/NORTHCENTRAL MOUNTAINS

CITY           SKY/WX    TMP DP  RH WIND       PRES   REMARKS
FARMINGTON     CLEAR     81  43  26 E10       30.09R
SANTA FE       CLEAR     67  42  40 E8        30.24F
TAOS           CLOUDY    61  46  59 N14       30.37R
ANGEL FIRE     CLOUDY    52  49  90 S3        30.43R

$$
NMZ402-403-502-505>509-011000-
WESTCENTRAL MOUNTAINS/SOUTHWEST MOUNTAINS

CITY           SKY/WX    TMP DP  RH WIND       PRES   REMARKS
GALLUP         PTCLDY    66  50  56 CALM      30.21R
GRANTS         CLEAR     64  43  47 SE5       30.24R
SILVER CITY      N/A     66  50  55 NE7       30.20F

$$
NMZ407-409-411-412-011000-
SOUTHERN DESERTS

CITY           SKY/WX    TMP DP  RH WIND       PRES   REMARKS
LORDSBURG      FAIR      70  54  56 S6        30.09S
DEMING         PTCLDY    69  49  48 NE7       30.11F
HOLLOMAN AFB   PTCLDY    73  50  44 S6        30.10F
ALAMOGORDO     CLEAR     66  48  52 E5        30.13S
T OR C         CLEAR     73  50  44 S5        30.14F

$$
NMZ519>523-011000-
CENTRAL VALLEYS/CENTRAL HIGHLANDS

CITY           SKY/WX    TMP DP  RH WIND       PRES   REMARKS
ALBUQUERQUE    CLEAR     74  43  32 SE7       30.18R
DOUBLE EAGLE   CLEAR     70  46  41 S10       30.20F
CLINES CORNERS CLEAR     62  44  51 SW7       30.29S
BELEN          FAIR      73  46  39 SE9       30.16R
SOCORRO        NOT AVBL

$$
NMZ524>526-539-540-011000-
SOUTHCENTRAL MOUNTAINS

CITY           SKY/WX    TMP DP  RH WIND       PRES   REMARKS
RUIDOSO        NOT AVBL

$$
NMZ527>531-011000-
NORTHEAST HIGHLANDS/NORTHEAST PLAINS

CITY           SKY/WX    TMP DP  RH WIND       PRES   REMARKS
LAS VEGAS      CLEAR     56  47  71 S13       30.27S
RATON          CLOUDY    62  50  64 CALM      30.22F
CLAYTON        CLEAR     66  51  58 SW9       30.12S

$$
NMZ532>537-011000-
EASTCENTRAL PLAINS

CITY           SKY/WX    TMP DP  RH WIND       PRES   REMARKS
TUCUMCARI      CLEAR     73  55  53 SW13      30.08F
CANNON AFB     CLEAR     64  57  77 S6        30.13F
CLOVIS AIRPORT CLEAR     61  55  82 SW6         N/A

$$
NMZ028-029-538-011000-
SOUTHEAST PLAINS

CITY           SKY/WX    TMP DP  RH WIND       PRES   REMARKS
ROSWELL        CLEAR     67  54  63 S3        30.09S
ARTESIA        CLEAR     68  57  68 S6        30.09F
CARLSBAD       CLEAR     70  58  65 S6        30.06F
HOBBS          CLEAR     66  66 100 S6        30.11F


$$


USA.gov is the U.S. government's official web portal to all federal, state and local government web resources and services.